Aeroporto :
LOGIN :

Iscrizione | Disclaimer

   EN    FR    IT 

 










Sommario :    VFR   VFR Marginale   IFR   IFR Intensivo   IFR Molto Intensivo
Visibilità : 
Base nubi : 
>= 8 km
>= 3000ft
5 / 8 km
1000 / 3000 ft
1500m / 5 km
500 / 1000 ft
800 / 1500m
200 / 500 ft
< 800m
< 200 ft
Simboli :   Temporali  Nebbia  Neve Forte  Precipitazioni Forti  Vento > 20 kt
SIGMETs :   Varie  Temporali  Ghiacco  Turbolenza  Onda orograficha  Ceneri Vulcaniche






- Altitudine del aeroporto : 124 ft
- Codice IATA : NHT


EGWU - RAF Northolt

ULTIMO METAR :
  • 011750Z 18005KT 9999 FEW035 SCT160 BKN220 12/06 Q0995 NOSIG

METARs OBSOLETI :
  • 011650Z 20006KT 9999 FEW038 BKN250 14/06 Q0996 NOSIG RMK BLU BLU
  • 011550Z 23004KT 9999 FEW040 SCT080 15/06 Q0996 NOSIG RMK BLU BLU

TAF TAF EGWU
Valido dal 01 a 18 ore il 02 a 12 ore UTC


011640Z 0118/0212 15005KT 9999 SCT035
PROB40
TEMPO 0122/0202 5000 SHRA BKN018
BECMG 0202/0205 08018G28KT 6000 RA FEW010 BKN015
TEMPO 0202/0211 BKN010
PROB40
TEMPO 0205/0211 4000 +RA
BECMG 0210/0212 10010KT 9999 NSW



MetMap, La meteo Aeronautica in un colpo d'occhio ! - Copyright ORBIFLY Dicembre 2007 - Disclaimer

ORBIFLY MET'MAP TEAM :

Programmazione e sviluppo : Alexandra Zaïnal
Concezione : Baudouin d'Aumeries
Aiuto per la programmazione : Marc-Olivier Méhu
Supporto tecnico e logistico : Manuel Goepfert
Aiuto per la traduzione : Arnaldo La Scala

Contatto : metmap@orbifly.com




FONTI E CREDITI :

   NOAA